Powrót do katalogu

CSC-2

AktywnyŁącznośćSSO
NORAD 58021·PAYLOAD·🇳🇱 Netherlands

Wystrzelony Oct 9, 2023 z Guiana Space Centre

Loading…

Następne Przeloty (najbliższe 24 godziny)

TLE

ŚwieżeSource: Space-Track

Epoka: Sep 14, 2026, 04:30 UTC

1 58021U 23155F   26257.18756678  .00006554  00000-0  28004-3 0  9999
2 58021  97.5358 334.1433 0003293 288.7352  71.3527 15.23203171161725

Śledź CSC-2 w czasie rzeczywistym z AllMySat

Download on the App Store